"Pseudo-MPEC" for C14GHT2

Created 2019 Oct 11 15:07:07 UT using Find_Orb

Click here for an explanation of pseudo-MPECs

 
 Astrometry: 
     C14GHT2  C2019 10 07.43792 06 46 04.20 +41 22 21.4    ~A7BM 21.0 GVNEOCPG96
     C14GHT2  C2019 10 07.44314 06 46 04.42 +41 22 20.5    ~A7BM 21.0 GVNEOCPG96
     C14GHT2  C2019 10 07.44836 06 46 04.69 +41 22 19.4    ~A7BM 20.8 GVNEOCPG96
     C14GHT2  C2019 10 07.45357 06 46 04.92 +41 22 18.5    ~A7BM 20.7 GVNEOCPG96
     C14GHT2  C2019 10 07.48346 06 46 06.35 +41 22 12.7    ~A7Cb 20.7 GVNEOCPG96
     C14GHT2  C2019 10 07.49316 06 46 06.82 +41 22 10.6    ~A7Cb 20.9 GVNEOCPG96
     C14GHT2  C2019 10 07.50144 06 46 07.19 +41 22 08.9    ~A7Cb 20.9 GVNEOCPG96
     C14GHT2  C2019 10 07.50920 06 46 07.56 +41 22 07.6    ~A7Cb 20.7 GVNEOCPG96
     C14GHT2  C2019 10 09.43651 06 47 38.57 +41 15 35.9    ~A9Bb 20.5 GVNEOCPI52
     C14GHT2  C2019 10 09.45383 06 47 39.31 +41 15 32.5    ~A9Bb 20.6 GVNEOCPI52
     C14GHT2  C2019 10 09.46142 06 47 39.56 +41 15 31.0    ~A9Bb 20.4 GVNEOCPI52
     C14GHT2  C2019 10 10.48237 06 48 22.90 +41 12 03.5    ~AACM 20.9 GVNEOCPI52
     C14GHT2  C2019 10 10.48866 06 48 23.13 +41 12 02.3    ~AACM 20.7 GVNEOCPI52
     C14GHT2  C2019 10 10.49663 06 48 23.43 +41 12 00.8    ~AACM 20.8 GVNEOCPI52
     C14GHT2  C2019 10 10.50330 06 48 23.69 +41 11 59.8    ~AACM 20.8 GVNEOCPI52
     C14GHT2 IC2019 10 11gAsnm;n@9.b_pAstrometrypsmEK(VE`Ol#5redacted;nA:^gR/L01
     C14GHT2 KC2019 10 11(FOB7^:b.3clickU-^]]wmO!(wq#7U?%b(-b2)cIA#1here)j@7NL01
     C14GHT2 KC2019 10 11XU1U:V^7(bO]for[.ydobvS%yN\eXexplanationL_I=$esZ%)p1L01
     C14GHT2  C2019 10 11.43116 06 49 00.38 +41 08 49.4    ~ABB7 21.0 GVNEOCPI52
     C14GHT2  C2019 10 11.43775 06 49 00.63 +41 08 48.2    ~ABB7 21.0 GVNEOCPI52
     C14GHT2  C2019 10 11.44439 06 49 00.81 +41 08 46.8    ~ABB7 21.2 GVNEOCPI52
     C14GHT2  C2019 10 11.45093 06 49 01.07 +41 08 46.1    ~ABB7 21.2 GVNEOCPI52

Station data:
(G96) Mt. Lemmon Survey  (N32.442754 W110.788720)  US/Arizona.  Observers T.
   A. Pruyne, B. M. Africano, E. J. Christensen, G. A. Farneth, D. C. Fuls,
   A. R. Gibbs, A. D. Grauer, H. Groeller, J. A. Johnson, R. A. Kowalski, S.
   M. Larson, G. J. Leonard, D. Rankin, R. L. Seaman, F. C. Shelly. 1.5-m
   reflector + 10K CCD.
(I52) Steward Observatory, Mt. Lemmon Station  (N32.442547 W110.788920)
   US/Arizona.  Observers T. A. Pruyne, B. M. Africano, E. J. Christensen, G.
   A. Farneth, D. C. Fuls, A. R. Gibbs, A. D. Grauer, H. Groeller, J. A.
   Johnson, R. A. Kowalski, S. M. Larson, G. J. Leonard, D. Rankin, R. L.
   Seaman, F. C. Shelly. 1.0-m reflector + CCD.
(L01) Višnjan Observatory, Tičan  (N45.290900 E13.749300)  Croatia.
   Observers K. Korlević, E. Pettarin. Measurer E. Pettarin. 1.0-m f/2.9
   reflector + CCD.

Orbital elements:  C14GHT2
   Perihelion 2019 Jun 9.128408 +/- 4.47 TT =  3:04:54 (JD 2458643.628408)
Epoch 2019 Oct 11.0 TT = JDT 2458767.5   Earth MOID: 0.1997   AutoNEOCP
M  33.75188044 +/- 6                (J2000 ecliptic)
n   0.27247474 +/- 0.0446           Peri.   49.93655 +/- 3.4
a   2.35641554 +/- 0.257            Node   279.35796 +/- 1.0
e   0.5287029 +/- 0.0421            Incl.   22.33341 +/- 0.19
P   3.62                   H 18.0   G  0.15   U 10.7  
q 1.11057165 +/- 0.0258    Q 3.60225944 +/- 0.576
From 22 observations 2019 Oct. 7-11; mean residual 0".18
Residuals in arcseconds: 
191007 G96  .18+  .08+    191009 I52  .00   .03+    191011 L01  .02+  .07+    
191007 G96  .16-  .16+    191009 I52  .24+  .08-    191011 L01  .18+  .18-    
191007 G96  .08+  .04+    191009 I52  .48-  .13-    191011 I52  .01-  .22-    
191007 G96  .13-  .13+    191010 I52  .13+  .10-    191011 I52  .18+  .17-    
191007 G96  .01+  .05+    191010 I52  .04+  .07-    191011 I52  .43-  .30-    
191007 G96  .15+  .17-    191010 I52  .03+  .00     191011 I52  .09-  .25+    
191007 G96  .08-  .25-    191010 I52  .12+  .32+    
191007 G96  .02-  .02-    191011 L01  .01-  .42+    

Ephemerides (geocentric):
Date (UTC) HH   RA              Dec         delta   r     elong  mag " sig PA
---- -- -- --  -------------   -----------  ------ ------ -----  --- ---- ---
2019 10 11 15  06 49 07.349   +41 08 09.83  1.2956 1.7374  97.6 21.2 .170  33
2019 10 11 16  06 49 08.899   +41 08 01.33  1.2954 1.7377  97.7 21.2 .183  33
2019 10 11 17  06 49 10.443   +41 07 52.82  1.2952 1.7380  97.7 21.2 .196  33
2019 10 11 18  06 49 11.982   +41 07 44.32  1.2951 1.7383  97.7 21.2 .209  33
2019 10 11 19  06 49 13.516   +41 07 35.81  1.2949 1.7386  97.8 21.2 .223  33
2019 10 11 20  06 49 15.043   +41 07 27.31  1.2947 1.7389  97.8 21.2 .237  33
2019 10 11 21  06 49 16.566   +41 07 18.80  1.2946 1.7392  97.8 21.2 .251  33
2019 10 11 22  06 49 18.083   +41 07 10.29  1.2944 1.7395  97.9 21.2 .266  33
2019 10 11 23  06 49 19.594   +41 07 01.78  1.2942 1.7398  97.9 21.2 .281  33
2019 10 12 00  06 49 21.100   +41 06 53.28  1.2940 1.7401  97.9 21.2 .296  33
2019 10 12 01  06 49 22.601   +41 06 44.77  1.2939 1.7404  98.0 21.1 .311  33
2019 10 12 02  06 49 24.096   +41 06 36.26  1.2937 1.7406  98.0 21.1 .327  33
2019 10 12 03  06 49 25.585   +41 06 27.75  1.2935 1.7409  98.0 21.1 .343  33
2019 10 12 04  06 49 27.069   +41 06 19.24  1.2934 1.7412  98.1 21.1 .360  33
2019 10 12 05  06 49 28.547   +41 06 10.72  1.2932 1.7415  98.1 21.1 .376  33
2019 10 12 06  06 49 30.020   +41 06 02.21  1.2930 1.7418  98.1 21.1 .393  33
2019 10 12 07  06 49 31.487   +41 05 53.70  1.2928 1.7421  98.2 21.1 .411  33
2019 10 12 08  06 49 32.949   +41 05 45.18  1.2927 1.7424  98.2 21.1 .428  33
2019 10 12 09  06 49 34.405   +41 05 36.67  1.2925 1.7427  98.2 21.1 .446  33
2019 10 12 10  06 49 35.856   +41 05 28.16  1.2923 1.7430  98.3 21.1 .464  33
2019 10 12 11  06 49 37.301   +41 05 19.64  1.2922 1.7433  98.3 21.1 .483  34
2019 10 12 12  06 49 38.741   +41 05 11.12  1.2920 1.7435  98.4 21.1 .502  34
2019 10 12 13  06 49 40.175   +41 05 02.61  1.2918 1.7438  98.4 21.1 .521  34
2019 10 12 14  06 49 41.604   +41 04 54.09  1.2916 1.7441  98.4 21.1 .541  34
2019 10 12 15  06 49 43.027   +41 04 45.57  1.2915 1.7444  98.5 21.1 .560  34
2019 10 12 16  06 49 44.444   +41 04 37.05  1.2913 1.7447  98.5 21.1 .581  34
2019 10 12 17  06 49 45.856   +41 04 28.54  1.2911 1.7450  98.5 21.1 .601  34
2019 10 12 18  06 49 47.263   +41 04 20.02  1.2909 1.7453  98.6 21.1 .622  34
2019 10 12 19  06 49 48.664   +41 04 11.50  1.2908 1.7456  98.6 21.1 .643  34
2019 10 12 20  06 49 50.059   +41 04 02.97  1.2906 1.7459  98.6 21.1 .665  35
2019 10 12 21  06 49 51.449   +41 03 54.45  1.2904 1.7462  98.7 21.1 .687  35
2019 10 12 22  06 49 52.833   +41 03 45.93  1.2903 1.7465  98.7 21.1 .709  35
2019 10 12 23  06 49 54.212   +41 03 37.41  1.2901 1.7467  98.7 21.1 .732  35
2019 10 13 00  06 49 55.585   +41 03 28.88  1.2899 1.7470  98.8 21.1 .755  35
2019 10 13 01  06 49 56.953   +41 03 20.36  1.2897 1.7473  98.8 21.1 .778  35
2019 10 13 02  06 49 58.315   +41 03 11.84  1.2896 1.7476  98.8 21.1 .802  35
2019 10 13 03  06 49 59.671   +41 03 03.31  1.2894 1.7479  98.9 21.1 .825  36
2019 10 13 04  06 50 01.022   +41 02 54.78  1.2892 1.7482  98.9 21.1 .850  36
2019 10 13 05  06 50 02.368   +41 02 46.26  1.2890 1.7485  98.9 21.1 .875  36
2019 10 13 06  06 50 03.708   +41 02 37.73  1.2889 1.7488  99.0 21.1 .900  36
2019 10 13 07  06 50 05.042   +41 02 29.20  1.2887 1.7491  99.0 21.1 .925  36
2019 10 13 08  06 50 06.371   +41 02 20.67  1.2885 1.7494  99.0 21.1 .951  36
2019 10 13 09  06 50 07.694   +41 02 12.14  1.2883 1.7496  99.1 21.1 .977  36
2019 10 13 10  06 50 09.011   +41 02 03.61  1.2882 1.7499  99.1 21.1 1.00  36
2019 10 13 11  06 50 10.323   +41 01 55.08  1.2880 1.7502  99.2 21.1 1.03  37
2019 10 13 12  06 50 11.630   +41 01 46.55  1.2878 1.7505  99.2 21.1 1.06  37
2019 10 13 13  06 50 12.930   +41 01 38.02  1.2877 1.7508  99.2 21.1 1.09  37
2019 10 13 14  06 50 14.226   +41 01 29.49  1.2875 1.7511  99.3 21.1 1.11  37